Date String (YYYY-MM-DD hh:mm:ss) UTC,Instrument flags,Ambient pressure (hPa),Sample flow (lpm),Bypass flow (lpm),Sample temperature (°C),Ambient temperature (°C),ASC tube jacket temperature (°C),LED temperature (°C),Box temperature (°C),Sample RH (%),Span deviation,Mass concentration (μg/m³),Mass concentration (μg/m³),Mass concentration (μg/m³)
DateTimeUTC,F1_M11,P_M11,Q1_M11,Q2_M11,T1_M11,T2_M11,T3_M11,T4_M11,T5_M11,U1_M11,ZSPAN_M11,X0_M11,X2_M11,X1_M11
2022-10-26 16:00:00,,0823.0,5.00,0.00,23.0,21.6,00.0,31.7,24.9,16.8,0000.0,0011.31,0004.21,0003.48
2022-10-26 16:01:00,,0822.9,5.00,0.00,23.0,21.6,00.0,31.7,24.9,16.9,0000.0,0011.51,0004.16,0003.46
2022-10-26 16:02:00,,0822.9,5.00,0.00,23.0,21.6,00.0,31.7,24.9,16.9,0000.0,0011.75,0004.19,0003.46
2022-10-26 16:03:00,,0823.0,5.00,0.00,23.0,21.6,00.0,31.7,24.9,16.9,0000.0,0011.34,0004.18,0003.46
2022-10-26 16:04:00,,0823.0,4.99,0.00,23.0,21.6,00.0,31.7,24.9,16.9,0000.0,0012.00,0004.15,0003.45
2022-10-26 16:05:00,,0822.9,4.99,0.00,23.0,21.6,00.0,31.7,24.9,16.9,0000.0,0011.96,0004.20,0003.44
2022-10-26 16:06:00,,0822.9,4.99,0.00,23.0,21.6,00.0,31.7,24.9,16.8,0000.0,0012.69,0004.22,0003.42
2022-10-26 16:07:00,,0822.8,5.00,0.00,23.0,21.6,00.0,31.7,24.9,16.5,0000.0,0014.08,0004.23,0003.41
2022-10-26 16:08:00,,0822.8,5.00,0.00,23.0,21.5,00.0,31.7,24.9,16.5,0000.0,0014.08,0004.21,0003.41
2022-10-26 16:09:00,,0822.7,5.00,0.00,22.9,21.5,00.0,31.7,24.9,16.7,0000.0,0013.85,0004.23,0003.41
2022-10-26 16:10:00,,0822.7,5.01,0.00,22.9,21.5,00.0,31.7,24.9,16.6,0000.0,0013.88,0004.26,0003.43
2022-10-26 16:11:00,,0822.6,5.01,0.00,23.0,21.5,00.0,31.7,24.9,16.8,0000.0,0014.45,0004.34,0003.44
2022-10-26 16:12:00,,0822.6,5.01,0.00,23.0,21.5,00.0,31.7,24.9,16.8,0000.0,0014.36,0004.42,0003.45
2022-10-26 16:13:00,,0822.6,5.00,0.00,23.0,21.5,00.0,31.7,24.9,17.0,0000.0,0014.61,0004.51,0003.45
2022-10-26 16:14:00,,0822.6,5.00,0.00,23.0,21.5,00.0,31.7,24.9,16.9,0000.0,0014.44,0004.56,0003.46
2022-10-26 16:15:00,,0822.6,5.00,0.00,23.0,21.5,00.0,31.7,24.9,16.9,0000.0,0014.19,0004.67,0003.48
2022-10-26 16:16:00,,0822.6,5.00,0.00,23.0,21.6,00.0,31.7,24.9,17.0,0000.0,0014.25,0004.69,0003.50
2022-10-26 16:17:00,,0822.6,5.00,0.00,23.0,21.6,00.0,31.7,24.9,16.6,0000.0,0013.50,0004.72,0003.52
2022-10-26 16:18:00,,0822.6,5.00,0.00,23.0,21.6,00.0,31.7,24.9,16.8,0000.0,0012.84,0004.72,0003.53
2022-10-26 16:19:00,,0822.6,4.99,0.00,23.0,21.6,00.0,31.7,24.9,16.8,0000.0,0013.17,0004.77,0003.55
2022-10-26 16:20:00,,0822.6,5.00,0.00,23.0,21.6,00.0,31.7,24.9,16.9,0000.0,0014.53,0004.80,0003.56
2022-10-26 16:21:00,,0822.6,5.01,0.00,23.0,21.6,00.0,31.7,24.9,16.9,0000.0,0014.13,0004.79,0003.57
2022-10-26 16:22:00,,0822.6,5.00,0.00,23.0,21.6,00.0,31.7,24.9,16.7,0000.0,0013.19,0004.73,0003.57
2022-10-26 16:23:00,,0822.6,5.01,0.00,23.0,21.7,00.0,31.7,24.9,16.7,0000.0,0013.12,0004.71,0003.59
2022-10-26 16:24:00,,0822.6,5.00,0.00,23.0,21.7,00.0,31.7,24.9,17.0,0000.0,0013.86,0004.67,0003.62
2022-10-26 16:25:00,,0822.5,5.00,0.00,23.0,21.6,00.0,31.7,24.9,17.1,0000.0,0013.60,0004.65,0003.64
2022-10-26 16:26:00,,0822.4,5.00,0.00,23.0,21.6,00.0,31.8,24.9,17.1,0000.0,0013.04,0004.61,0003.66
2022-10-26 16:27:00,,0822.4,5.00,0.00,23.0,21.6,00.0,31.8,24.9,17.1,0000.0,0013.48,0004.61,0003.68
2022-10-26 16:28:00,,0822.4,5.00,0.00,23.0,21.7,00.0,31.8,24.9,17.2,0000.0,0013.91,0004.59,0003.71
2022-10-26 16:29:00,,0822.4,4.99,0.00,23.0,21.7,00.0,31.8,25.0,17.2,0000.0,0014.76,0004.63,0003.74
2022-10-26 16:30:00,,0822.4,5.00,0.00,23.0,21.7,00.0,31.8,25.0,17.0,0000.0,0014.95,0004.62,0003.76
2022-10-26 16:31:00,,0822.3,5.00,0.00,23.0,21.7,00.0,31.8,25.0,17.2,0000.0,0013.90,0004.67,0003.79
2022-10-26 16:32:00,,0822.2,5.00,0.00,23.0,21.7,00.0,31.8,25.0,17.2,0000.0,0014.46,0004.75,0003.82
2022-10-26 16:33:00,,0822.2,5.00,0.00,23.0,21.7,00.0,31.8,25.0,17.2,0000.0,0015.36,0004.83,0003.86
2022-10-26 16:34:00,,0822.2,4.99,0.00,23.1,21.7,00.0,31.8,25.0,17.4,0000.0,0015.49,0004.87,0003.89
2022-10-26 16:35:00,,0822.1,5.00,0.00,23.1,21.8,00.0,31.8,25.0,17.4,0000.0,0015.41,0004.88,0003.90
2022-10-26 16:36:00,,0822.1,5.00,0.00,23.1,21.7,00.0,31.8,25.0,17.5,0000.0,0015.80,0004.90,0003.93
2022-10-26 16:37:00,,0822.1,5.00,0.00,23.1,21.8,00.0,31.8,25.0,17.3,0000.0,0016.22,0004.93,0003.95
2022-10-26 16:38:00,,0822.1,5.01,0.00,23.1,21.8,00.0,31.8,25.0,17.2,0000.0,0016.56,0004.95,0003.97
2022-10-26 16:39:00,,0822.1,5.01,0.00,23.1,21.8,00.0,31.8,25.0,16.9,0000.0,0016.03,0004.95,0003.98
2022-10-26 16:40:00,,0822.1,5.00,0.00,23.1,21.8,00.0,31.8,25.0,16.9,0000.0,0016.25,0004.94,0003.98
2022-10-26 16:41:00,,0822.1,4.99,0.00,23.1,21.8,00.0,31.8,25.0,16.9,0000.0,0015.93,0004.95,0003.98
2022-10-26 16:42:00,,0822.1,4.99,0.00,23.1,21.8,00.0,31.8,25.1,17.2,0000.0,0017.61,0004.99,0004.00
2022-10-26 16:43:00,,0822.1,5.00,0.00,23.1,21.8,00.0,31.9,25.1,17.2,0000.0,0017.94,0004.96,0004.00
2022-10-26 16:44:00,,0822.1,5.00,0.00,23.1,21.8,00.0,31.9,25.1,16.9,0000.0,0018.16,0004.88,0003.98
2022-10-26 16:45:00,,0822.2,5.00,0.00,23.1,21.9,00.0,31.9,25.1,16.9,0000.0,0017.86,0004.86,0003.97
2022-10-26 16:46:00,,0822.1,5.00,0.00,23.2,21.9,00.0,31.9,25.1,16.8,0000.0,0017.39,0004.85,0003.96
2022-10-26 16:47:00,,0822.2,5.00,0.00,23.2,21.9,00.0,31.9,25.1,16.8,0000.0,0017.24,0004.87,0003.94
2022-10-26 16:48:00,,0822.1,4.99,0.00,23.2,21.9,00.0,31.9,25.1,16.7,0000.0,0017.07,0004.86,0003.91
2022-10-26 16:49:00,,0822.1,5.00,0.00,23.2,21.9,00.0,31.9,25.1,16.9,0000.0,0018.22,0004.81,0003.90
2022-10-26 16:50:00,,0822.1,4.99,0.00,23.2,21.9,00.0,31.9,25.1,17.0,0000.0,0019.27,0004.81,0003.89
2022-10-26 16:51:00,,0822.0,4.99,0.00,23.2,22.0,00.0,31.9,25.1,17.0,0000.0,0018.30,0004.84,0003.90
2022-10-26 16:52:00,,0822.0,5.02,0.00,23.2,22.0,00.0,31.9,25.1,17.0,0000.0,0018.35,0004.86,0003.91
2022-10-26 16:53:00,,0821.9,4.99,0.00,23.2,22.0,00.0,32.0,25.1,17.0,0000.0,0017.32,0004.84,0003.91
2022-10-26 16:54:00,,0822.1,4.99,0.00,23.2,22.0,00.0,32.0,25.2,17.1,0000.0,0016.45,0004.82,0003.90
2022-10-26 16:55:00,,0821.9,4.99,0.00,23.3,22.0,00.0,32.0,25.2,17.0,0000.0,0015.90,0004.88,0003.91
2022-10-26 16:56:00,,0821.9,4.99,0.00,23.3,22.0,00.0,32.0,25.2,17.1,0000.0,0016.45,0004.92,0003.92
2022-10-26 16:57:00,,0821.8,5.01,0.00,23.3,22.1,00.0,32.0,25.2,17.1,0000.0,0017.24,0004.96,0003.93
2022-10-26 16:58:00,,0821.8,5.00,0.00,23.3,22.1,00.0,32.0,25.3,17.1,0000.0,0017.78,0004.98,0003.95
2022-10-26 16:59:00,,0821.8,5.00,0.00,23.3,22.1,00.0,32.0,25.3,17.1,0000.0,0018.01,0005.00,0003.96
